This demonstration page uses our WeatherBlox Daily Observations layout. Learn more.

Left ArrowRight Arrow

40.92945, -100.16068

Hourly Observations for August 5, 2021

Temp ( °F °C ) Dew Point ( °F °C ) Humidity (%) Winds ( mph kmh ) Pressure ( in mb ) Visibility ( mi km ) Precip ( " mm )
12:15 am 00:15 Cloudy 66 19.1 64 17.8 92 92 WNW 6 9 29.99 1016 7 11 N/A
12:35 am 00:35 Cloudy 66 19.1 64 17.5 91 91 W 3 6 29.99 1016 10 16 N/A
12:55 am 00:55 Mostly Cloudy 66 18.7 64 17.5 93 93 W 3 6 29.98 1015 10 16 N/A
1:15 am 01:15 Clear 65 18.5 63 17.3 93 93 N N/A 29.98 1015 7 11 N/A
1:35 am 01:35 Clear 64 17.8 62 16.9 95 95 W 5 7 29.99 1016 7 11 N/A
1:55 am 01:55 Clear 63 17.4 62 16.4 94 94 N N/A 29.99 1016 7 11 N/A
2:15 am 02:15 Mostly Cloudy 63 17.2 61 16.2 94 94 SSW 3 6 29.99 1015 7 11 N/A
2:35 am 02:35 Partly Cloudy 63 17.2 62 16.4 95 95 WSW 5 7 29.98 1015 10 16 N/A
2:55 am 02:55 Clear 63 17 61 16.1 94 94 SSW 3 6 29.98 1015 7 11 N/A
3:15 am 03:15 Clear 62 16.5 60 15.7 95 95 N N/A 29.98 1015 7 11 N/A
3:35 am 03:35 Clear with Mist and Fog 60 15.8 60 15.3 97 97 N N/A 29.99 1016 5 8 N/A
3:55 am 03:55 Clear with Mist and Fog 60 15.6 59 15.1 97 97 N N/A 29.99 1016 4 6 N/A
4:15 am 04:15 Clear with Mist and Fog 60 15.5 59 15 97 97 SW 6 9 29.99 1016 5 8 N/A
4:35 am 04:35 Clear with Mist and Fog 60 15.3 58 14.7 96 96 WSW 3 6 29.98 1015 5 8 N/A
4:55 am 04:55 Clear with Mist and Fog 59 15 58 14.5 97 97 N N/A 29.99 1015 5 8 N/A
5:15 am 05:15 Clear with Mist and Fog 59 15 58 14.5 97 97 SW 5 7 29.99 1015 5 8 N/A
5:35 am 05:35 Clear with Mist and Fog 59 14.9 58 14.5 97 97 N N/A 29.99 1015 4 6 N/A
5:55 am 05:55 Clear with Mist and Fog 59 14.9 58 14.4 97 97 N N/A 29.99 1015 5 8 N/A
6:15 am 06:15 Clear with Mist and Fog 59 15 58 14.4 96 96 N N/A 30.00 1016 5 8 N/A
6:35 am 06:35 Clear with Mist and Fog 58 14.6 57 14.1 97 97 N N/A 30.00 1016 3 5 N/A
6:55 am 06:55 Sunny with Mist and Fog 58 14.2 57 13.7 97 97 W 5 7 30.01 1016 3 5 N/A
7:15 am 07:15 Sunny with Mist and Fog 58 14.7 58 14.3 97 97 W 6 9 30.01 1016 3 5 N/A
7:35 am 07:35 Sunny with Mist and Fog 60 15.8 60 15.5 98 98 WSW 5 7 30.00 1016 3 5 N/A
7:55 am 07:55 Sunny with Mist and Fog 62 16.5 60 15.8 96 96 WSW 3 6 30.00 1016 4 6 N/A
8:15 am 08:15 Sunny with Mist and Fog 63 17.2 61 16.3 94 94 WSW 3 6 29.99 1015 5 8 N/A
8:35 am 08:35 Sunny with Mist and Fog 65 18.1 63 17 93 93 WSW 3 6 29.99 1016 5 8 N/A
8:55 am 08:55 Sunny 66 19.1 63 17 88 88 W 7 11 29.98 1015 7 11 N/A
9:15 am 09:15 Sunny 68 19.8 63 17 84 84 W 6 9 29.97 1015 7 11 N/A
9:35 am 09:35 Sunny 69 20.7 63 17.4 81 81 W 6 9 29.97 1015 10 16 N/A
9:55 am 09:55 Sunny 71 21.6 64 17.6 78 78 W 6 9 29.96 1014 10 16 N/A
10:15 am 10:15 Sunny 73 22.5 64 18 76 76 WNW 5 7 29.95 1014 10 16 N/A
10:35 am 10:35 Sunny 74 23.3 65 18.1 73 73 W 3 6 29.94 1014 10 16 N/A
11:35 am 11:35 Sunny 79 26 66 18.9 65 65 WNW 3 6 29.92 1013 7 11 N/A
11:55 am 11:55 Sunny 80 26.9 67 19.6 64 64 N N/A 29.90 1013 10 16 N/A
12:15 pm 12:15 Sunny 83 28.2 66 18.9 57 57 SW 3 6 29.89 1012 10 16 N/A
12:35 pm 12:35 Sunny 84 29 66 19.1 55 55 W 3 6 29.88 1012 10 16 N/A
12:55 pm 12:55 Sunny 85 29.6 64 18 50 50 N N/A 29.87 1012 10 16 N/A
1:15 pm 13:15 Sunny 87 30.4 56 13.3 35 35 SW 6 9 29.87 1011 10 16 N/A
1:35 pm 13:35 Sunny 87 30.8 60 15.4 39 39 WSW 5 7 29.86 1011 10 16 N/A
1:55 pm 13:55 Sunny 89 31.5 57 14.1 35 35 WSW 5 7 29.85 1011 10 16 N/A
2:15 pm 14:15 Sunny 89 31.7 59 15.1 37 37 SW 6 9 29.84 1010 10 16 N/A
2:35 pm 14:35 Sunny 89 31.6 57 14.1 34 34 SSW 6 9 29.84 1010 10 16 N/A
2:55 pm 14:55 Sunny 90 32 57 13.9 33 33 SSW 6 9 29.82 1010 10 16 N/A
3:15 pm 15:15 Sunny 90 32 58 14.4 34 34 SW 6 9 29.81 1010 10 16 N/A
3:35 pm 15:35 Sunny 90 32.1 58 14.7 35 35 S 7 11 29.81 1010 10 16 N/A
3:55 pm 15:55 Sunny 90 32.2 58 14.2 34 34 S 5 7 29.81 1010 10 16 N/A
4:15 pm 16:15 Sunny 90 32.4 58 14.6 34 34 SSW 6 9 29.80 1009 10 16 N/A
4:35 pm 16:35 Sunny with Nearby Thunderstorms 90 32.2 63 17.2 41 41 S 10 17 29.80 1009 10 16 N/A
4:55 pm 16:55 Sunny 90 32 62 16.8 40 40 SSE 9 15 29.80 1009 10 16 N/A
5:15 pm 17:15 Sunny 90 32.1 61 16.2 38 38 S 10 17 29.79 1009 10 16 N/A
5:35 pm 17:35 Sunny 89 31.9 62 16.4 39 39 S 10 17 29.79 1009 10 16 N/A
5:55 pm 17:55 Sunny 89 31.5 62 16.7 41 41 S 9 15 29.79 1009 10 16 N/A
6:15 pm 18:15 Sunny 88 31.1 63 17 43 43 S 8 13 29.79 1009 10 16 N/A
6:35 pm 18:35 Sunny 87 30.5 63 17.3 45 45 S 12 19 29.80 1009 10 16 N/A
6:55 pm 18:55 Sunny 86 30 61 16.3 44 44 S 8 13 29.80 1009 10 16 N/A
7:15 pm 19:15 Sunny 85 29.4 63 17 47 47 S 7 11 29.80 1009 10 16 N/A
7:35 pm 19:35 Sunny 83 28.5 64 17.6 52 52 SSE 7 11 29.81 1010 7 11 N/A
7:55 pm 19:55 Sunny 81 27.4 64 17.9 56 56 SSE 6 9 29.81 1009 10 16 N/A
8:15 pm 20:15 Sunny 80 26.7 64 17.8 58 58 S 6 9 29.83 1010 10 16 N/A
8:35 pm 20:35 Sunny 80 26.5 63 17.3 57 57 SSE 7 11 29.83 1010 10 16 N/A
8:55 pm 20:55 Clear 80 26.5 62 16.7 55 55 SSE 6 9 29.84 1010 10 16 N/A
9:15 pm 21:15 Partly Cloudy 78 25.3 58 14.4 51 51 NE 20 31 29.90 1012 10 16 N/A
9:35 pm 21:35 Partly Cloudy 76 24.5 56 13.5 50 50 E 18 30 29.89 1012 10 16 N/A
9:55 pm 21:55 Clear 78 25.5 54 12.1 43 43 ESE 16 26 29.88 1012 10 16 N/A
10:15 pm 22:15 Clear 78 25.4 52 11 41 41 SE 9 15 29.87 1011 10 16 N/A
10:35 pm 22:35 Clear 76 24.4 52 11.3 44 44 SSE 9 15 29.86 1011 10 16 N/A
10:55 pm 22:55 Clear 74 23.6 52 11.1 45 45 SSW 7 11 29.86 1011 10 16 N/A
11:15 pm 23:15 Clear 73 23 52 11.3 48 48 SSW 9 15 29.86 1011 10 16 N/A
11:35 pm 23:35 Clear 72 22.4 52 11.2 49 49 SSW 8 13 29.85 1011 10 16 N/A
11:55 pm 23:55 Clear 71 21.7 53 11.6 53 53 SSW 5 7 29.85 1011 10 16 N/A

Powered by AerisWeather